RH
75 75 70 68 73 75 77 76 76 77 83 86 79 75 64 67 72 65 42 17 22 18 22 34 38 42 65 80 72 63 60 81 92
34 66 82 85 80 74 77 77 77 78 77 83 84 82 77 71 67 72 66 34 22 31 37 33 70 68 88 87 84 90 74 76 74
11 15 31 68 79 89 90 80 85 85 82 80 82 83 81 77 69 72 76 50 40 63 63 71 80 90 96 99 97 92 85 88 82
14 14 12 19 36 58 92 93 87 85 79 86 83 80 82 83 71 70 74 74 52 67 87 88 85 99 97 92 80 74 68 65 60
22 17 15 15 13 15 46 84 95 89 76 84 94 92 87 84 77 73 76 77 74 59 62 94 92 90 89 87 83 77 39 47 44
27 27 28 24 17 15 13 12 42 80 89 88 89 92 96 93 84 71 81 85 83 85 71 80 99 96 97 95 88 87 29 36 38
24 27 29 30 30 27 18 16 12 16 53 69 86 94 85 95 94 81 74 89 90 97 94 68 80 98 99 100 94 91 82 74 58
28 28 30 34 35 35 32 26 20 17 12 16 56 88 88 93 92 98 87 94 96 97 99 86 51 61 100 99 98 90 67 52 40
25 25 27 32 39 42 41 39 32 28 23 15 16 48 86 92 93 99 100 98 95 99 98 92 91 74 59 62 76 58 56 61 60
22 26 33 39 46 52 52 50 50 40 37 31 22 18 36 82 98 92 95 97 100 96 98 97 92 86 80 68 52 61 61 72 70
27 31 34 40 51 57 59 60 58 59 45 42 37 28 20 22 48 81 98 92 100 100 100 98 97 96 84 77 66 68 74 81 83
37 42 44 49 52 54 59 68 75 68 65 48 44 40 34 25 19 30 68 99 100 99 100 100 99 100 96 89 72 79 85 92 89
29 39 48 51 58 61 68 76 86 78 70 63 50 46 41 37 34 26 22 37 82 99 100 100 100 99 98 100 87 83 90 96 92
34 40 44 45 48 54 63 74 76 83 77 64 55 50 46 42 40 38 29 25 59 78 99 100 100 100 100 99 97 88 91 98 98
35 38 40 46 49 50 52 61 79 78 84 82 60 50 48 44 42 41 40 33 96 74 81 98 99 99 97 100 98 99 94 97 99
33 34 36 39 42 46 47 52 59 77 84 84 79 72 64 60 43 39 38 40 60 99 98 75 87 93 94 100 98 96 99 100 100
35 38 39 40 42 42 46 48 54 59 68 85 85 73 76 91 61 53 39 37 62 88 100 97 92 87 99 100 100 98 98 98 100
40 43 42 40 42 43 41 41 48 52 56 62 86 83 80 75 79 58 54 34 42 73 88 94 100 95 100 100 98 98 100 100 100
38 30 26 25 26 33 40 40 36 38 45 52 60 88 81 80 78 77 60 36 39 65 92 99 99 99 98 99 88 91 99 100 100
24 15 10 9 10 14 16 24 38 38 37 44 52 66 82 81 86 87 72 53 36 53 54 92 98 94 93 82 80 78 97 99 99
Wind_Speed
27 28 27 27 27 27 26 26 26 24 24 23 23 23 22 21 20 19 19 20 23 24 22 21 20 20 20 19 18 15 15 17 17
28 30 31 30 31 30 30 29 29 27 27 26 26 24 24 24 23 22 20 18 20 22 22 22 21 21 23 20 18 18 18 20 20
27 28 31 33 33 33 34 33 31 31 29 29 29 28 27 27 26 25 24 19 19 22 20 22 23 23 20 21 19 17 17 17 18
26 28 29 32 34 36 35 35 37 35 34 32 33 33 32 29 28 29 27 24 22 23 21 21 24 27 24 21 20 21 22 22 23
27 28 30 31 33 36 39 40 39 39 40 37 35 34 36 34 31 32 30 30 27 23 24 26 30 31 29 27 26 24 22 24 25
32 33 32 32 32 34 37 40 43 44 41 42 42 40 38 38 35 35 33 34 34 29 26 28 35 37 33 32 29 24 22 20 21
34 36 36 36 36 36 37 38 40 44 46 45 44 43 42 42 41 39 38 36 38 35 32 32 31 35 38 35 29 26 25 25 24
32 34 37 39 39 38 38 38 39 40 42 45 44 46 45 43 44 41 42 41 41 39 38 35 35 41 34 36 31 29 28 28 26
34 36 38 40 41 41 40 39 38 39 40 41 45 48 48 49 47 46 44 46 45 43 48 38 37 35 33 38 33 28 26 26 25
36 37 38 40 42 42 42 41 39 39 39 39 41 44 48 49 48 47 54 53 47 53 47 46 38 36 33 29 31 29 29 28 25
39 37 38 40 42 43 43 43 42 40 41 40 39 39 42 47 48 50 52 51 48 50 49 44 45 40 39 34 34 33 33 30 26
42 41 40 39 40 42 43 44 44 42 41 42 40 39 38 39 44 47 59 48 47 51 52 52 48 46 41 39 38 37 36 33 29
45 43 41 41 41 41 41 41 44 43 43 42 41 40 39 37 37 40 47 42 54 44 39 50 49 50 47 40 43 41 38 36 32
48 47 45 45 43 43 44 44 42 44 45 43 41 39 38 37 36 35 34 36 41 55 47 25 38 48 54 49 46 40 41 40 36
49 49 48 48 45 43 44 46 42 41 45 49 44 39 34 33 34 34 32 31 27 36 58 43 19 38 33 48 49 37 51 46 44
51 51 50 50 51 47 44 45 44 42 41 41 48 48 43 37 33 30 31 28 34 24 28 33 47 28 22 28 52 48 19 34 48
50 49 47 47 47 44 42 43 44 42 41 43 39 39 44 44 38 34 28 30 28 30 24 22 23 24 26 21 33 52 41 15 49
47 45 43 44 44 43 39 38 42 42 38 37 40 38 33 32 32 32 31 29 28 30 33 30 32 28 29 24 27 26 49 37 24
43 42 41 40 41 40 39 37 39 40 39 36 33 39 36 32 29 26 27 29 31 28 39 30 38 39 31 27 28 31 33 35 26
40 40 39 39 39 38 39 37 37 38 37 35 34 33 34 35 32 32 27 27 31 32 35 36 27 37 36 34 30 32 35 34 28
Wind_Direction
279 280 280 280 278 277 274 274 273 270 268 267 270 269 267 265 262 257 263 265 248 241 241 240 239 230 224 226 219 207 203 190 185
281 277 277 277 278 275 275 274 271 269 266 266 265 262 264 264 262 256 257 263 250 238 236 235 233 222 220 221 218 205 206 205 212
288 283 279 275 277 276 275 272 270 268 264 263 263 262 260 260 259 257 251 253 242 237 239 234 224 217 207 193 196 205 210 215 219
288 286 282 280 277 273 271 270 266 265 266 267 264 261 259 255 256 253 248 246 245 240 239 228 213 200 198 216 227 230 232 233 239
290 288 285 282 278 274 270 270 271 265 261 263 265 263 258 256 251 252 247 245 244 244 239 228 218 218 226 236 234 235 241 241 244
296 293 289 284 280 276 273 269 266 265 265 264 262 259 259 256 251 250 248 246 246 246 240 233 232 224 229 232 229 233 233 241 247
297 297 295 291 285 279 275 272 269 265 262 264 263 257 254 253 252 248 246 241 244 244 240 234 234 240 230 222 226 231 239 247 250
299 296 294 292 288 283 277 273 271 269 264 260 258 259 253 253 254 249 240 240 240 242 237 236 235 235 229 236 236 240 243 249 249
298 294 291 288 286 283 277 273 271 271 269 263 256 254 253 253 250 251 249 238 238 240 244 236 235 239 237 244 245 243 240 239 243
303 297 291 287 285 282 278 273 272 271 270 268 263 256 252 250 250 254 252 254 234 237 244 241 235 238 237 229 227 231 230 233 239
306 301 294 288 284 282 279 275 270 268 269 268 266 263 257 253 252 249 253 252 233 236 235 233 234 234 233 230 227 227 227 230 233
304 301 295 289 283 280 278 273 270 268 267 266 263 263 262 261 256 254 245 250 245 235 231 230 235 231 230 230 226 227 226 226 229
304 300 296 290 285 281 279 277 269 267 267 266 264 262 260 260 262 258 257 257 260 237 235 237 238 236 230 230 226 226 225 225 226
303 300 297 292 286 281 279 277 278 269 263 262 261 259 259 259 261 262 262 255 257 254 249 224 227 231 237 234 228 226 226 224 224
302 300 297 294 290 283 279 277 277 277 271 260 255 253 254 259 261 258 257 256 253 262 251 263 240 216 216 223 221 221 220 224 218
301 298 295 291 290 287 282 278 276 273 275 276 262 253 255 255 255 257 253 250 246 253 258 251 264 273 255 229 220 220 225 221 223
302 299 296 291 289 288 282 278 278 277 275 277 275 271 251 252 254 254 254 246 240 241 243 246 235 251 225 231 223 216 235 241 222
303 302 298 293 290 288 284 280 276 275 273 273 276 277 271 253 244 252 252 245 239 232 234 233 215 223 219 221 240 242 232 234 229
306 304 300 295 292 291 287 281 277 276 272 267 265 272 273 267 250 243 242 241 234 231 231 232 233 224 230 244 235 240 238 235 222
308 304 300 296 292 289 286 283 277 274 274 266 260 258 264 268 264 238 234 235 233 230 228 221 234 222 230 240 237 241 237 237 234